Time,TemperatureF,DewpointF,PressureIn,WindDirection,WindDirectionDegrees,WindSpeedMPH,WindSpeedGustMPH,Humidity,HourlyPrecipIn,Conditions,Clouds,dailyrainin,SoftwareType,DateUTC
2013-01-18 00:10:00,33.8,12.1,29.03,SE,135,0.0,0.0,40,0.00,,---,0.00,VWS V13.01,2013-01-18 05:10:00,
2013-01-18 00:12:00,33.8,12.1,29.03,SE,135,0.0,0.0,40,0.00,,---,0.00,VWS V13.01,2013-01-18 05:12:00,
2013-01-18 00:13:00,33.6,12.4,29.03,SE,135,0.0,0.0,41,0.00,,---,0.00,VWS V13.01,2013-01-18 05:13:00,
2013-01-18 00:18:00,33.8,12.1,29.03,East,90,0.0,4.9,40,0.00,,---,0.00,VWS V13.01,2013-01-18 05:18:00,
2013-01-18 00:23:00,33.4,12.8,29.03,East,90,3.1,4.0,42,0.00,,---,0.00,VWS V13.01,2013-01-18 05:23:00,
2013-01-18 00:28:00,33.3,12.7,29.03,SSE,158,4.9,6.7,42,0.00,,---,0.00,VWS V13.01,2013-01-18 05:28:00,
2013-01-18 00:33:00,33.6,12.4,29.03,SSE,158,0.0,6.7,41,0.00,,---,0.00,VWS V13.01,2013-01-18 05:33:00,
2013-01-18 00:38:00,33.6,12.4,29.03,SSE,158,2.2,6.7,41,0.00,,---,0.00,VWS V13.01,2013-01-18 05:38:00,
2013-01-18 00:43:00,33.6,11.9,29.03,SSE,158,0.0,0.0,40,0.00,,---,0.00,VWS V13.01,2013-01-18 05:43:00,
2013-01-18 00:48:00,33.3,12.1,29.03,SSE,158,0.0,0.0,41,0.00,,---,0.00,VWS V13.01,2013-01-18 05:48:00,
2013-01-18 00:54:00,32.9,12.3,29.03,SSE,158,0.0,2.2,42,0.00,,---,0.00,VWS V13.01,2013-01-18 05:54:00,
2013-01-18 00:59:00,32.5,12.5,29.03,SSE,158,0.0,3.6,43,0.00,,---,0.00,VWS V13.01,2013-01-18 05:59:00,
2013-01-18 01:04:00,32.4,12.4,29.03,SSW,202,2.2,3.1,43,0.00,,---,0.00,VWS V13.01,2013-01-18 06:04:00,
2013-01-18 01:09:00,31.6,14.2,29.03,SSW,202,0.0,3.1,48,0.00,,---,0.00,VWS V13.01,2013-01-18 06:09:00,
2013-01-18 01:14:00,31.5,14.1,29.03,SSW,202,0.0,3.1,48,0.00,,---,0.00,VWS V13.01,2013-01-18 06:14:00,
2013-01-18 01:19:00,32.5,12.5,29.03,SSW,202,5.4,7.2,43,0.00,,---,0.00,VWS V13.01,2013-01-18 06:19:00,
2013-01-18 01:24:00,32.9,12.3,29.03,SW,225,2.2,2.7,42,0.00,,---,0.00,VWS V13.01,2013-01-18 06:24:00,
2013-01-18 01:29:00,32.5,12.5,29.03,SE,135,0.0,4.9,43,0.00,,---,0.00,VWS V13.01,2013-01-18 06:29:00,
2013-01-18 01:34:00,32.2,15.6,29.03,SE,135,4.9,4.9,50,0.00,,---,0.00,VWS V13.01,2013-01-18 06:34:00,
2013-01-18 01:40:00,32.5,13.1,29.03,NW,315,2.2,5.4,44,0.00,,---,0.00,VWS V13.01,2013-01-18 06:40:00,
2013-01-18 01:45:00,32.9,12.3,29.03,NW,315,2.7,3.6,42,0.00,,---,0.00,VWS V13.01,2013-01-18 06:45:00,
2013-01-18 01:50:00,32.7,12.2,29.06,NW,315,3.1,4.0,42,0.00,,---,0.00,VWS V13.01,2013-01-18 06:50:00,
2013-01-18 01:55:00,32.7,12.2,29.06,NW,315,0.0,4.0,42,0.00,,---,0.00,VWS V13.01,2013-01-18 06:55:00,
2013-01-18 02:00:00,32.7,12.7,29.06,NW,315,2.7,4.0,43,0.00,,---,0.00,VWS V13.01,2013-01-18 07:00:00,
2013-01-18 02:05:00,32.7,12.7,29.06,NW,315,0.0,0.0,43,0.00,,---,0.00,VWS V13.01,2013-01-18 07:05:00,
2013-01-18 02:10:00,32.7,12.7,29.06,NW,315,0.0,4.0,43,0.00,,---,0.00,VWS V13.01,2013-01-18 07:10:00,
2013-01-18 02:15:00,32.7,13.2,29.06,SE,135,2.7,5.8,44,0.00,,---,0.00,VWS V13.01,2013-01-18 07:15:00,
2013-01-18 02:20:00,33.1,12.0,29.06,SE,135,5.4,5.8,41,0.00,,---,0.00,VWS V13.01,2013-01-18 07:20:00,
2013-01-18 02:26:00,33.1,12.0,29.06,SE,135,0.0,4.0,41,0.00,,---,0.00,VWS V13.01,2013-01-18 07:26:00,
2013-01-18 02:31:00,33.3,12.1,29.06,SE,135,0.0,4.0,41,0.00,,---,0.00,VWS V13.01,2013-01-18 07:31:00,
2013-01-18 02:36:00,33.3,12.1,29.06,SE,135,0.0,4.0,41,0.00,,---,0.00,VWS V13.01,2013-01-18 07:36:00,
2013-01-18 02:41:00,33.3,12.1,29.06,SE,135,0.0,4.0,41,0.00,,---,0.00,VWS V13.01,2013-01-18 07:41:00,
2013-01-18 02:47:00,33.1,12.0,29.09,SE,135,0.0,0.0,41,0.00,,---,0.00,VWS V13.01,2013-01-18 07:47:00,
2013-01-18 02:53:00,33.3,11.6,29.09,SE,135,0.0,0.0,40,0.00,,---,0.00,VWS V13.01,2013-01-18 07:53:00,
2013-01-18 02:58:00,33.6,10.1,29.09,SE,135,0.0,0.0,37,0.00,,---,0.00,VWS V13.01,2013-01-18 07:58:00,
2013-01-18 03:03:00,33.6,10.1,29.09,SE,135,0.0,0.0,37,0.00,,---,0.00,VWS V13.01,2013-01-18 08:03:00,
2013-01-18 03:08:00,33.6,9.5,29.09,East,90,0.0,0.0,36,0.00,,---,0.00,VWS V13.01,2013-01-18 08:08:00,
2013-01-18 03:13:00,33.6,8.9,29.09,SE,135,0.0,0.0,35,0.00,,---,0.00,VWS V13.01,2013-01-18 08:13:00,
2013-01-18 03:18:00,33.8,7.1,29.09,SE,135,0.0,0.0,32,0.00,,---,0.00,VWS V13.01,2013-01-18 08:18:00,
2013-01-18 03:23:00,33.8,7.1,29.09,East,90,0.0,0.0,32,0.00,,---,0.00,VWS V13.01,2013-01-18 08:23:00,
2013-01-18 03:28:00,33.6,6.9,29.09,East,90,0.0,0.0,32,0.00,,---,0.00,VWS V13.01,2013-01-18 08:28:00,
2013-01-18 03:33:00,33.8,6.4,29.09,SE,135,0.0,0.0,31,0.00,,---,0.00,VWS V13.01,2013-01-18 08:33:00,
2013-01-18 03:38:00,33.6,6.9,29.09,East,90,0.0,0.0,32,0.00,,---,0.00,VWS V13.01,2013-01-18 08:38:00,
2013-01-18 03:44:00,33.4,6.8,29.09,East,90,0.0,0.0,32,0.00,,---,0.00,VWS V13.01,2013-01-18 08:44:00,
2013-01-18 03:49:00,33.4,6.8,29.09,East,90,0.0,0.0,32,0.00,,---,0.00,VWS V13.01,2013-01-18 08:49:00,
2013-01-18 03:54:00,33.4,6.1,29.09,SSE,158,0.0,0.0,31,0.00,,---,0.00,VWS V13.01,2013-01-18 08:54:00,
2013-01-18 03:59:00,33.4,6.1,29.09,SSE,158,0.0,0.0,31,0.00,,---,0.00,VWS V13.01,2013-01-18 08:59:00,
2013-01-18 04:04:00,33.3,5.9,29.09,ESE,112,0.0,0.0,31,0.00,,---,0.00,VWS V13.01,2013-01-18 09:04:00,
2013-01-18 04:09:00,33.3,5.9,29.09,SE,135,0.0,0.0,31,0.00,,---,0.00,VWS V13.01,2013-01-18 09:09:00,
2013-01-18 04:14:00,32.9,5.6,29.09,NE,45,0.0,0.0,31,0.00,,---,0.00,VWS V13.01,2013-01-18 09:14:00,
2013-01-18 04:19:00,32.9,4.9,29.09,East,90,0.0,0.0,30,0.00,,---,0.00,VWS V13.01,2013-01-18 09:19:00,
2013-01-18 04:24:00,32.5,4.6,29.09,NNE,22,0.0,0.0,30,0.00,,---,0.00,VWS V13.01,2013-01-18 09:24:00,
2013-01-18 04:29:00,32.5,4.6,29.09,NE,45,0.0,0.0,30,0.00,,---,0.00,VWS V13.01,2013-01-18 09:29:00,
2013-01-18 04:34:00,32.0,2.6,29.12,East,90,0.0,0.0,28,0.00,,---,0.00,VWS V13.01,2013-01-18 09:34:00,
2013-01-18 04:40:00,31.8,2.4,29.12,NE,45,0.0,0.0,28,0.00,,---,0.00,VWS V13.01,2013-01-18 09:40:00,
2013-01-18 04:45:00,31.5,2.1,29.12,NE,45,0.0,0.0,28,0.00,,---,0.00,VWS V13.01,2013-01-18 09:45:00,
2013-01-18 04:50:00,31.1,1.8,29.14,NE,45,0.0,0.0,28,0.00,,---,0.00,VWS V13.01,2013-01-18 09:50:00,
2013-01-18 04:55:00,30.9,1.7,29.14,NE,45,0.0,0.0,28,0.00,,---,0.00,VWS V13.01,2013-01-18 09:55:00,
2013-01-18 05:00:00,30.6,1.4,29.14,ENE,68,0.0,0.0,28,0.00,,---,0.00,VWS V13.01,2013-01-18 10:00:00,
2013-01-18 05:05:00,30.4,1.2,29.14,WNW,292,0.0,0.0,28,0.00,,---,0.00,VWS V13.01,2013-01-18 10:05:00,
2013-01-18 05:10:00,30.4,1.2,29.14,NNE,22,0.0,0.0,28,0.00,,---,0.00,VWS V13.01,2013-01-18 10:10:00,
2013-01-18 05:15:00,30.2,1.0,29.14,NE,45,0.0,0.0,28,0.00,,---,0.00,VWS V13.01,2013-01-18 10:15:00,
2013-01-18 05:20:00,30.0,0.9,29.17,NNE,22,0.0,0.0,28,0.00,,---,0.00,VWS V13.01,2013-01-18 10:20:00,
2013-01-18 05:25:00,29.7,0.6,29.17,East,90,0.0,0.0,28,0.00,,---,0.00,VWS V13.01,2013-01-18 10:25:00,
2013-01-18 05:30:00,29.5,0.4,29.17,SW,225,0.0,0.0,28,0.00,,---,0.00,VWS V13.01,2013-01-18 10:30:00,
2013-01-18 05:36:00,29.3,0.2,29.14,NW,315,0.0,0.0,28,0.00,,---,0.00,VWS V13.01,2013-01-18 10:36:00,
2013-01-18 05:41:00,29.1,0.1,29.14,South,180,0.0,0.0,28,0.00,,---,0.00,VWS V13.01,2013-01-18 10:41:00,
2013-01-18 05:46:00,28.9,-0.1,29.14,NE,45,0.0,0.0,28,0.00,,---,0.00,VWS V13.01,2013-01-18 10:46:00,
2013-01-18 05:51:00,28.9,-0.1,29.17,ENE,68,0.0,0.0,28,0.00,,---,0.00,VWS V13.01,2013-01-18 10:51:00,
2013-01-18 05:56:00,28.8,1.2,29.17,North,0,0.0,0.0,30,0.00,,---,0.00,VWS V13.01,2013-01-18 10:56:00,
2013-01-18 06:01:00,28.8,1.2,29.17,NE,45,0.0,0.0,30,0.00,,---,0.00,VWS V13.01,2013-01-18 11:01:00,
2013-01-18 06:06:00,28.6,-0.4,29.17,NE,45,0.0,0.0,28,0.00,,---,0.00,VWS V13.01,2013-01-18 11:06:00,
2013-01-18 06:11:00,28.6,-0.4,29.17,SE,135,0.0,0.0,28,0.00,,---,0.00,VWS V13.01,2013-01-18 11:11:00,
2013-01-18 06:16:00,28.6,-0.4,29.17,East,90,5.8,5.8,28,0.00,,---,0.00,VWS V13.01,2013-01-18 11:16:00,
2013-01-18 06:21:00,28.4,-0.5,29.20,NE,45,6.3,9.6,28,0.00,,---,0.00,VWS V13.01,2013-01-18 11:21:00,
2013-01-18 06:26:00,28.2,-0.7,29.20,East,90,4.0,5.8,28,0.00,,---,0.00,VWS V13.01,2013-01-18 11:26:00,
2013-01-18 06:32:00,28.2,-0.7,29.20,ENE,68,12.3,12.3,28,0.00,,---,0.00,VWS V13.01,2013-01-18 11:32:00,
2013-01-18 06:37:00,27.7,-1.2,29.20,SE,135,2.7,12.3,28,0.00,,---,0.00,VWS V13.01,2013-01-18 11:37:00,
2013-01-18 06:42:00,27.5,-1.3,29.20,NE,45,5.8,12.3,28,0.00,,---,0.00,VWS V13.01,2013-01-18 11:42:00,
2013-01-18 06:47:00,27.5,-1.3,29.20,East,90,10.5,12.3,28,0.00,,---,0.00,VWS V13.01,2013-01-18 11:47:00,
2013-01-18 06:52:00,27.1,-1.6,29.20,NE,45,10.1,12.3,28,0.00,,---,0.00,VWS V13.01,2013-01-18 11:52:00,
2013-01-18 06:57:00,27.1,-1.6,29.20,SE,135,0.0,12.3,28,0.00,,---,0.00,VWS V13.01,2013-01-18 11:57:00,
2013-01-18 07:02:00,27.1,-1.6,29.20,East,90,0.0,12.3,28,0.00,,---,0.00,VWS V13.01,2013-01-18 12:02:00,
2013-01-18 07:07:00,27.1,-1.6,29.23,ENE,68,0.0,0.0,28,0.00,,---,0.00,VWS V13.01,2013-01-18 12:07:00,
2013-01-18 07:12:00,27.1,-1.6,29.23,East,90,0.0,0.0,28,0.00,,---,0.00,VWS V13.01,2013-01-18 12:12:00,
2013-01-18 07:17:00,27.1,-1.6,29.23,WNW,292,0.0,0.0,28,0.00,,---,0.00,VWS V13.01,2013-01-18 12:17:00,
2013-01-18 07:22:00,27.0,0.4,29.23,SW,225,0.0,0.0,31,0.00,,---,0.00,VWS V13.01,2013-01-18 12:22:00,
2013-01-18 07:27:00,27.0,0.4,29.23,NW,315,0.0,0.0,31,0.00,,---,0.00,VWS V13.01,2013-01-18 12:27:00,
2013-01-18 07:32:00,26.8,0.2,29.23,NNE,22,0.0,0.0,31,0.00,,---,0.00,VWS V13.01,2013-01-18 12:32:00,
2013-01-18 07:38:00,26.8,0.2,29.26,North,0,0.0,0.0,31,0.00,,---,0.00,VWS V13.01,2013-01-18 12:38:00,
2013-01-18 07:43:00,26.8,0.2,29.26,NW,315,0.0,0.0,31,0.00,,---,0.00,VWS V13.01,2013-01-18 12:43:00,
2013-01-18 07:48:00,26.4,0.6,29.26,NE,45,0.0,0.0,32,0.00,,---,0.00,VWS V13.01,2013-01-18 12:48:00,
2013-01-18 07:53:00,26.2,-0.3,29.26,NE,45,0.0,0.0,31,0.00,,---,0.00,VWS V13.01,2013-01-18 12:53:00,
2013-01-18 07:58:00,26.1,-0.4,29.26,North,0,0.0,0.0,31,0.00,,---,0.00,VWS V13.01,2013-01-18 12:58:00,
2013-01-18 08:03:00,26.1,0.2,29.26,North,0,0.0,0.0,32,0.00,,---,0.00,VWS V13.01,2013-01-18 13:03:00,
2013-01-18 08:08:00,25.9,0.1,29.26,SE,135,0.0,0.0,32,0.00,,---,0.00,VWS V13.01,2013-01-18 13:08:00,
2013-01-18 08:13:00,25.7,0.6,29.26,ENE,68,0.0,0.0,33,0.00,,---,0.00,VWS V13.01,2013-01-18 13:13:00,
2013-01-18 08:18:00,25.5,-0.2,29.29,NE,45,0.0,0.0,32,0.00,,---,0.00,VWS V13.01,2013-01-18 13:18:00,
2013-01-18 08:23:00,25.5,-0.2,29.29,SW,225,0.0,0.0,32,0.00,,---,0.00,VWS V13.01,2013-01-18 13:23:00,
2013-01-18 08:28:00,25.5,-0.2,29.29,ESE,112,0.0,0.0,32,0.00,,---,0.00,VWS V13.01,2013-01-18 13:28:00,
2013-01-18 08:33:00,25.5,-0.2,29.29,NW,315,0.0,0.0,32,0.00,,---,0.00,VWS V13.01,2013-01-18 13:33:00,
2013-01-18 08:39:00,25.3,-1.1,29.29,NE,45,0.0,0.0,31,0.00,,---,0.00,VWS V13.01,2013-01-18 13:39:00,
2013-01-18 08:44:00,25.3,-1.1,29.29,NW,315,0.0,0.0,31,0.00,,---,0.00,VWS V13.01,2013-01-18 13:44:00,
2013-01-18 08:49:00,25.3,-1.1,29.29,NW,315,0.0,0.0,31,0.00,,---,0.00,VWS V13.01,2013-01-18 13:49:00,
2013-01-18 08:54:00,25.2,-2.6,29.29,WNW,292,0.0,0.0,29,0.00,,---,0.00,VWS V13.01,2013-01-18 13:54:00,
2013-01-18 08:59:00,25.2,-2.6,29.29,WNW,292,0.0,0.0,29,0.00,,---,0.00,VWS V13.01,2013-01-18 13:59:00,
2013-01-18 09:04:00,25.2,-2.6,29.32,NW,315,0.0,0.0,29,0.00,,---,0.00,VWS V13.01,2013-01-18 14:04:00,
2013-01-18 09:09:00,25.2,-2.6,29.32,SE,135,0.0,0.0,29,0.00,,---,0.00,VWS V13.01,2013-01-18 14:09:00,
2013-01-18 09:14:00,25.2,-2.6,29.32,North,0,0.0,0.0,29,0.00,,---,0.00,VWS V13.01,2013-01-18 14:14:00,
2013-01-18 09:20:00,25.2,-2.6,29.32,North,0,0.0,0.0,29,0.00,,---,0.00,VWS V13.01,2013-01-18 14:20:00,
2013-01-18 09:25:00,25.3,-1.1,29.32,North,0,0.0,0.0,31,0.00,,---,0.00,VWS V13.01,2013-01-18 14:25:00,
2013-01-18 09:30:00,25.3,-1.1,29.32,NE,45,0.0,0.0,31,0.00,,---,0.00,VWS V13.01,2013-01-18 14:30:00,
2013-01-18 09:35:00,25.3,-1.1,29.32,NW,315,0.0,0.0,31,0.00,,---,0.00,VWS V13.01,2013-01-18 14:35:00,
2013-01-18 09:40:00,25.9,-0.6,29.32,NE,45,0.0,0.0,31,0.00,,---,0.00,VWS V13.01,2013-01-18 14:40:00,
2013-01-18 09:45:00,25.9,-0.6,29.32,NE,45,0.0,0.0,31,0.00,,---,0.00,VWS V13.01,2013-01-18 14:45:00,
2013-01-18 09:50:00,26.1,-0.4,29.35,North,0,0.0,0.0,31,0.00,,---,0.00,VWS V13.01,2013-01-18 14:50:00,
2013-01-18 09:56:00,26.1,-0.4,29.35,NE,45,0.0,0.0,31,0.00,,---,0.00,VWS V13.01,2013-01-18 14:56:00,
2013-01-18 10:01:00,26.2,-0.3,29.35,North,0,0.0,0.0,31,0.00,,---,0.00,VWS V13.01,2013-01-18 15:01:00,
2013-01-18 10:06:00,26.1,-1.8,29.35,NW,315,0.0,0.0,29,0.00,,---,0.00,VWS V13.01,2013-01-18 15:06:00,
2013-01-18 10:11:00,26.2,-1.7,29.35,North,0,0.0,0.0,29,0.00,,---,0.00,VWS V13.01,2013-01-18 15:11:00,
2013-01-18 10:16:00,26.2,-1.7,29.35,WNW,292,0.0,0.0,29,0.00,,---,0.00,VWS V13.01,2013-01-18 15:16:00,
2013-01-18 10:21:00,26.2,-1.7,29.35,North,0,0.0,0.0,29,0.00,,---,0.00,VWS V13.01,2013-01-18 15:21:00,
2013-01-18 10:26:00,26.4,-1.5,29.35,NNW,338,0.0,0.0,29,0.00,,---,0.00,VWS V13.01,2013-01-18 15:26:00,
2013-01-18 10:31:00,26.6,-1.4,29.35,West,270,0.0,0.0,29,0.00,,---,0.00,VWS V13.01,2013-01-18 15:31:00,
2013-01-18 10:36:00,26.8,-1.9,29.35,NE,45,0.0,0.0,28,0.00,,---,0.00,VWS V13.01,2013-01-18 15:36:00,
2013-01-18 10:41:00,26.8,-1.9,29.35,NNE,22,0.0,0.0,28,0.00,,---,0.00,VWS V13.01,2013-01-18 15:41:00,
2013-01-18 10:46:00,26.1,-4.1,29.35,NNW,338,0.0,0.0,26,0.00,,---,0.00,VWS V13.01,2013-01-18 15:46:00,
2013-01-18 10:51:00,25.9,-4.3,29.35,North,0,0.0,0.0,26,0.00,,---,0.00,VWS V13.01,2013-01-18 15:51:00,
2013-01-18 10:57:00,25.7,-4.4,29.35,North,0,0.0,0.0,26,0.00,,---,0.00,VWS V13.01,2013-01-18 15:57:00,
2013-01-18 11:02:00,27.0,-3.3,29.35,NE,45,0.0,0.0,26,0.00,,---,0.00,VWS V13.01,2013-01-18 16:02:00,
2013-01-18 11:07:00,27.0,-3.3,29.35,NE,45,0.0,0.0,26,0.00,,---,0.00,VWS V13.01,2013-01-18 16:07:00,
2013-01-18 11:12:00,27.1,-3.2,29.35,North,0,0.0,0.0,26,0.00,,---,0.00,VWS V13.01,2013-01-18 16:12:00,
2013-01-18 11:17:00,27.3,-3.0,29.35,SW,225,0.0,0.0,26,0.00,,---,0.00,VWS V13.01,2013-01-18 16:17:00,
2013-01-18 11:22:00,27.7,-2.7,29.35,SE,135,4.9,4.9,26,0.00,,---,0.00,VWS V13.01,2013-01-18 16:22:00,
2013-01-18 11:27:00,28.6,-2.8,29.35,NE,45,2.2,8.7,25,0.00,,---,0.00,VWS V13.01,2013-01-18 16:27:00,
2013-01-18 11:32:00,28.9,-2.5,29.35,South,180,5.4,8.7,25,0.00,,---,0.00,VWS V13.01,2013-01-18 16:32:00,
2013-01-18 11:37:00,29.5,-2.0,29.35,South,180,4.9,8.7,25,0.00,,---,0.00,VWS V13.01,2013-01-18 16:37:00,
2013-01-18 11:43:00,29.5,-3.7,29.35,SSW,202,6.3,6.3,23,0.00,,---,0.00,VWS V13.01,2013-01-18 16:43:00,
2013-01-18 11:48:00,29.1,-4.1,29.35,WSW,248,0.0,6.3,23,0.00,,---,0.00,VWS V13.01,2013-01-18 16:48:00,
2013-01-18 11:53:00,29.7,-3.6,29.35,East,90,3.6,6.3,23,0.00,,---,0.00,VWS V13.01,2013-01-18 16:53:00,
2013-01-18 11:58:00,30.4,-3.0,29.35,SE,135,4.0,6.3,23,0.00,,---,0.00,VWS V13.01,2013-01-18 16:58:00,
2013-01-18 12:03:00,30.4,-3.0,29.35,South,180,3.6,3.6,23,0.00,,---,0.00,VWS V13.01,2013-01-18 17:03:00,
2013-01-18 12:08:00,31.1,-2.4,29.35,NNW,338,3.1,5.8,23,0.00,,---,0.00,VWS V13.01,2013-01-18 17:08:00,
2013-01-18 12:13:00,31.1,-2.4,29.35,NNW,338,0.0,5.8,23,0.00,,---,0.00,VWS V13.01,2013-01-18 17:13:00,
2013-01-18 12:18:00,32.5,-1.1,29.35,WNW,292,5.4,5.8,23,0.00,,---,0.00,VWS V13.01,2013-01-18 17:18:00,
2013-01-18 12:23:00,30.9,-2.5,29.35,North,0,3.6,6.7,23,0.00,,---,0.00,VWS V13.01,2013-01-18 17:23:00,
2013-01-18 12:28:00,31.5,-2.0,29.35,SW,225,8.1,8.1,23,0.00,,---,0.00,VWS V13.01,2013-01-18 17:28:00,
2013-01-18 12:33:00,31.6,-1.9,29.32,NE,45,4.0,8.1,23,0.00,,---,0.00,VWS V13.01,2013-01-18 17:33:00,
2013-01-18 12:39:00,32.5,-1.1,29.32,NNE,22,5.4,8.1,23,0.00,,---,0.00,VWS V13.01,2013-01-18 17:39:00,
2013-01-18 12:44:00,32.4,-1.3,29.32,South,180,0.0,6.3,23,0.00,,---,0.00,VWS V13.01,2013-01-18 17:44:00,
2013-01-18 12:49:00,33.1,-0.7,29.32,SE,135,5.4,6.3,23,0.00,,---,0.00,VWS V13.01,2013-01-18 17:49:00,
2013-01-18 12:54:00,33.6,-0.2,29.32,SW,225,2.2,6.3,23,0.00,,---,0.00,VWS V13.01,2013-01-18 17:54:00,
2013-01-18 12:59:00,33.1,-0.7,29.32,South,180,4.9,6.3,23,0.00,,---,0.00,VWS V13.01,2013-01-18 17:59:00,
2013-01-18 13:04:00,33.4,-0.4,29.32,East,90,3.6,5.8,23,0.00,,---,0.00,VWS V13.01,2013-01-18 18:04:00,
2013-01-18 13:09:00,33.3,-0.5,29.32,SSE,158,3.6,5.8,23,0.00,,---,0.00,VWS V13.01,2013-01-18 18:09:00,
2013-01-18 13:14:00,33.4,-0.4,29.32,NW,315,8.3,8.3,23,0.00,,---,0.00,VWS V13.01,2013-01-18 18:14:00,
2013-01-18 13:19:00,32.7,-1.0,29.32,North,0,0.0,8.3,23,0.00,,---,0.00,VWS V13.01,2013-01-18 18:19:00,
2013-01-18 13:24:00,34.0,-0.9,29.32,East,90,2.7,3.1,22,0.00,,---,0.00,VWS V13.01,2013-01-18 18:24:00,
2013-01-18 13:30:00,34.0,-0.9,29.32,South,180,3.1,8.7,22,0.00,,---,0.00,VWS V13.01,2013-01-18 18:30:00,
2013-01-18 13:35:00,34.5,-0.4,29.32,South,180,4.0,8.7,22,0.00,,---,0.00,VWS V13.01,2013-01-18 18:35:00,
2013-01-18 13:40:00,34.5,-0.4,29.32,NE,45,2.7,8.7,22,0.00,,---,0.00,VWS V13.01,2013-01-18 18:40:00,
2013-01-18 13:45:00,34.5,-0.4,29.32,WSW,248,4.9,4.9,22,0.00,,---,0.00,VWS V13.01,2013-01-18 18:45:00,
2013-01-18 13:50:00,35.6,0.5,29.32,SSE,158,3.6,6.3,22,0.00,,---,0.00,VWS V13.01,2013-01-18 18:50:00,
2013-01-18 13:55:00,34.7,-0.2,29.32,SE,135,0.0,8.1,22,0.00,,---,0.00,VWS V13.01,2013-01-18 18:55:00,
2013-01-18 14:00:00,35.2,0.2,29.32,South,180,0.0,8.1,22,0.00,,---,0.00,VWS V13.01,2013-01-18 19:00:00,
2013-01-18 14:05:00,36.0,0.8,29.32,SE,135,5.8,5.8,22,0.00,,---,0.00,VWS V13.01,2013-01-18 19:05:00,
2013-01-18 14:10:00,35.8,0.7,29.32,North,0,3.1,5.8,22,0.00,,---,0.00,VWS V13.01,2013-01-18 19:10:00,
2013-01-18 14:16:00,36.1,1.0,29.32,West,270,2.7,7.6,22,0.00,,---,0.00,VWS V13.01,2013-01-18 19:16:00,
2013-01-18 14:21:00,35.2,0.2,29.32,South,180,5.8,7.6,22,0.00,,---,0.00,VWS V13.01,2013-01-18 19:21:00,
2013-01-18 14:26:00,35.8,0.7,29.32,SSE,158,3.1,6.7,22,0.00,,---,0.00,VWS V13.01,2013-01-18 19:26:00,
2013-01-18 14:31:00,34.9,-0.1,29.32,South,180,0.0,6.7,22,0.00,,---,0.00,VWS V13.01,2013-01-18 19:31:00,
2013-01-18 14:36:00,35.6,0.5,29.32,South,180,0.0,6.7,22,0.00,,---,0.00,VWS V13.01,2013-01-18 19:36:00,
2013-01-18 14:41:00,36.3,1.1,29.32,South,180,0.0,6.7,22,0.00,,---,0.00,VWS V13.01,2013-01-18 19:41:00,
2013-01-18 14:46:00,35.8,0.7,29.32,West,270,0.0,0.0,22,0.00,,---,0.00,VWS V13.01,2013-01-18 19:46:00,
2013-01-18 14:51:00,35.4,0.4,29.32,West,270,0.0,0.0,22,0.00,,---,0.00,VWS V13.01,2013-01-18 19:51:00,
2013-01-18 14:57:00,35.4,0.4,29.32,South,180,0.0,0.0,22,0.00,,---,0.00,VWS V13.01,2013-01-18 19:57:00,
2013-01-18 15:02:00,36.1,1.0,29.32,South,180,0.0,0.0,22,0.00,,---,0.00,VWS V13.01,2013-01-18 20:02:00,
2013-01-18 15:07:00,36.1,1.0,29.32,South,180,0.0,0.0,22,0.00,,---,0.00,VWS V13.01,2013-01-18 20:07:00,
2013-01-18 15:12:00,35.6,0.5,29.32,South,180,0.0,0.0,22,0.00,,---,0.00,VWS V13.01,2013-01-18 20:12:00,
2013-01-18 15:17:00,35.8,0.7,29.32,South,180,0.0,0.0,22,0.00,,---,0.00,VWS V13.01,2013-01-18 20:17:00,
2013-01-18 15:22:00,34.7,-0.2,29.35,South,180,0.0,0.0,22,0.00,,---,0.00,VWS V13.01,2013-01-18 20:22:00,
2013-01-18 15:27:00,35.6,0.5,29.35,South,180,0.0,0.0,22,0.00,,---,0.00,VWS V13.01,2013-01-18 20:27:00,
2013-01-18 15:32:00,35.1,0.1,29.32,SW,225,0.0,0.0,22,0.00,,---,0.00,VWS V13.01,2013-01-18 20:32:00,
2013-01-18 15:37:00,33.8,-1.0,29.32,West,270,0.0,0.0,22,0.00,,---,0.00,VWS V13.01,2013-01-18 20:37:00,
2013-01-18 15:42:00,33.8,-1.0,29.32,West,270,0.0,2.2,22,0.00,,---,0.00,VWS V13.01,2013-01-18 20:42:00,
2013-01-18 15:47:00,33.8,-1.0,29.35,West,270,0.0,4.9,22,0.00,,---,0.00,VWS V13.01,2013-01-18 20:47:00,
2013-01-18 15:53:00,34.0,-0.9,29.35,West,270,0.0,4.9,22,0.00,,---,0.00,VWS V13.01,2013-01-18 20:53:00,
2013-01-18 15:58:00,34.0,-0.9,29.35,South,180,3.1,4.9,22,0.00,,---,0.00,VWS V13.01,2013-01-18 20:58:00,
2013-01-18 16:03:00,34.0,-0.9,29.32,South,180,0.0,0.0,22,0.00,,---,0.00,VWS V13.01,2013-01-18 21:03:00,
2013-01-18 16:08:00,34.0,-0.9,29.32,NNW,338,0.0,5.4,22,0.00,,---,0.00,VWS V13.01,2013-01-18 21:08:00,
2013-01-18 16:13:00,34.5,-0.4,29.32,NNW,338,4.0,5.4,22,0.00,,---,0.00,VWS V13.01,2013-01-18 21:13:00,
2013-01-18 16:18:00,34.3,-0.6,29.32,SSW,202,3.6,5.8,22,0.00,,---,0.00,VWS V13.01,2013-01-18 21:18:00,
2013-01-18 16:23:00,33.8,-1.0,29.32,West,270,2.2,2.2,22,0.00,,---,0.00,VWS V13.01,2013-01-18 21:23:00,
2013-01-18 16:28:00,33.6,-0.2,29.32,South,180,0.0,4.0,23,0.00,,---,0.00,VWS V13.01,2013-01-18 21:28:00,
2013-01-18 16:33:00,33.3,-0.5,29.32,South,180,0.0,4.0,23,0.00,,---,0.00,VWS V13.01,2013-01-18 21:33:00,
2013-01-18 16:38:00,33.1,-0.7,29.32,South,180,2.7,4.0,23,0.00,,---,0.00,VWS V13.01,2013-01-18 21:38:00,
2013-01-18 16:44:00,33.1,-0.7,29.32,South,180,0.0,2.7,23,0.00,,---,0.00,VWS V13.01,2013-01-18 21:44:00,
2013-01-18 16:49:00,32.7,-1.0,29.32,South,180,0.0,2.7,23,0.00,,---,0.00,VWS V13.01,2013-01-18 21:49:00,
2013-01-18 16:54:00,32.4,-1.3,29.32,South,180,0.0,2.7,23,0.00,,---,0.00,VWS V13.01,2013-01-18 21:54:00,
2013-01-18 16:59:00,31.3,-2.2,29.32,South,180,0.0,2.7,23,0.00,,---,0.00,VWS V13.01,2013-01-18 21:59:00,
2013-01-18 17:04:00,30.9,-2.5,29.32,South,180,0.0,0.0,23,0.00,,---,0.00,VWS V13.01,2013-01-18 22:04:00,
2013-01-18 17:09:00,30.7,-2.7,29.32,South,180,0.0,0.0,23,0.00,,---,0.00,VWS V13.01,2013-01-18 22:09:00,
2013-01-18 17:14:00,30.2,-3.1,29.32,South,180,0.0,0.0,23,0.00,,---,0.00,VWS V13.01,2013-01-18 22:14:00,
2013-01-18 17:19:00,29.8,-3.4,29.32,South,180,0.0,0.0,23,0.00,,---,0.00,VWS V13.01,2013-01-18 22:19:00,
2013-01-18 17:24:00,29.5,-2.0,29.32,South,180,0.0,0.0,25,0.00,,---,0.00,VWS V13.01,2013-01-18 22:24:00,
2013-01-18 17:29:00,29.5,-2.0,29.32,South,180,0.0,0.0,25,0.00,,---,0.00,VWS V13.01,2013-01-18 22:29:00,
2013-01-18 17:35:00,29.3,-2.2,29.32,South,180,0.0,0.0,25,0.00,,---,0.00,VWS V13.01,2013-01-18 22:35:00,
2013-01-18 17:40:00,28.9,-0.1,29.32,South,180,0.0,0.0,28,0.00,,---,0.00,VWS V13.01,2013-01-18 22:40:00,
2013-01-18 17:45:00,29.1,-2.3,29.32,South,180,0.0,0.0,25,0.00,,---,0.00,VWS V13.01,2013-01-18 22:45:00,
2013-01-18 17:50:00,28.9,-0.1,29.32,South,180,0.0,0.0,28,0.00,,---,0.00,VWS V13.01,2013-01-18 22:50:00,
2013-01-18 17:55:00,28.8,-0.2,29.32,South,180,0.0,0.0,28,0.00,,---,0.00,VWS V13.01,2013-01-18 22:55:00,
2013-01-18 18:00:00,28.6,-0.4,29.32,South,180,0.0,0.0,28,0.00,,---,0.00,VWS V13.01,2013-01-18 23:00:00,
2013-01-18 18:05:00,28.6,-0.4,29.32,South,180,0.0,0.0,28,0.00,,---,0.00,VWS V13.01,2013-01-18 23:05:00,
2013-01-18 18:10:00,28.8,-0.2,29.32,South,180,0.0,0.0,28,0.00,,---,0.00,VWS V13.01,2013-01-18 23:10:00,
2013-01-18 18:15:00,28.6,-0.4,29.32,South,180,0.0,0.0,28,0.00,,---,0.00,VWS V13.01,2013-01-18 23:15:00,
2013-01-18 18:21:00,28.6,-0.4,29.32,South,180,0.0,0.0,28,0.00,,---,0.00,VWS V13.01,2013-01-18 23:21:00,
2013-01-18 18:26:00,28.6,-0.4,29.32,South,180,0.0,0.0,28,0.00,,---,0.00,VWS V13.01,2013-01-18 23:26:00,
2013-01-18 18:31:00,28.6,1.1,29.32,South,180,0.0,0.0,30,0.00,,---,0.00,VWS V13.01,2013-01-18 23:31:00,
2013-01-18 18:36:00,28.4,1.6,29.32,South,180,0.0,0.0,31,0.00,,---,0.00,VWS V13.01,2013-01-18 23:36:00,
2013-01-18 18:41:00,28.6,1.1,29.32,South,180,0.0,0.0,30,0.00,,---,0.00,VWS V13.01,2013-01-18 23:41:00,
2013-01-18 18:46:00,28.2,1.5,29.32,South,180,0.0,0.0,31,0.00,,---,0.00,VWS V13.01,2013-01-18 23:46:00,
2013-01-18 18:51:00,28.4,1.6,29.32,South,180,0.0,0.0,31,0.00,,---,0.00,VWS V13.01,2013-01-18 23:51:00,
2013-01-18 18:56:00,28.2,1.5,29.32,South,180,0.0,0.0,31,0.00,,---,0.00,VWS V13.01,2013-01-18 23:56:00,
2013-01-18 19:01:00,28.2,1.5,29.32,South,180,0.0,0.0,31,0.00,,---,0.00,VWS V13.01,2013-01-19 00:01:00,
2013-01-18 19:06:00,27.9,1.2,29.32,South,180,0.0,0.0,31,0.00,,---,0.00,VWS V13.01,2013-01-19 00:06:00,
2013-01-18 19:11:00,27.7,1.7,29.32,South,180,0.0,0.0,32,0.00,,---,0.00,VWS V13.01,2013-01-19 00:11:00,
2013-01-18 19:17:00,27.7,1.7,29.32,South,180,0.0,0.0,32,0.00,,---,0.00,VWS V13.01,2013-01-19 00:17:00,
2013-01-18 19:22:00,27.7,1.0,29.32,South,180,0.0,0.0,31,0.00,,---,0.00,VWS V13.01,2013-01-19 00:22:00,
2013-01-18 19:27:00,27.5,1.5,29.32,South,180,0.0,0.0,32,0.00,,---,0.00,VWS V13.01,2013-01-19 00:27:00,
2013-01-18 19:32:00,27.3,0.7,29.32,South,180,0.0,0.0,31,0.00,,---,0.00,VWS V13.01,2013-01-19 00:32:00,
2013-01-18 19:37:00,27.1,0.5,29.32,South,180,0.0,0.0,31,0.00,,---,0.00,VWS V13.01,2013-01-19 00:37:00,
2013-01-18 19:42:00,27.3,0.7,29.32,South,180,0.0,0.0,31,0.00,,---,0.00,VWS V13.01,2013-01-19 00:42:00,
2013-01-18 19:47:00,27.5,0.8,29.32,South,180,0.0,0.0,31,0.00,,---,0.00,VWS V13.01,2013-01-19 00:47:00,
2013-01-18 19:52:00,27.3,0.7,29.32,South,180,0.0,0.0,31,0.00,,---,0.00,VWS V13.01,2013-01-19 00:52:00,
2013-01-18 19:57:00,27.3,0.7,29.32,South,180,0.0,0.0,31,0.00,,---,0.00,VWS V13.01,2013-01-19 00:57:00,
2013-01-18 20:03:00,27.0,-1.8,29.32,South,180,0.0,0.0,28,0.00,,---,0.00,VWS V13.01,2013-01-19 01:03:00,
2013-01-18 20:08:00,27.1,-1.6,29.32,South,180,0.0,0.0,28,0.00,,---,0.00,VWS V13.01,2013-01-19 01:08:00,
2013-01-18 20:13:00,27.1,0.5,29.32,South,180,0.0,0.0,31,0.00,,---,0.00,VWS V13.01,2013-01-19 01:13:00,
2013-01-18 20:18:00,27.1,0.5,29.29,South,180,0.0,0.0,31,0.00,,---,0.00,VWS V13.01,2013-01-19 01:18:00,
2013-01-18 20:24:00,27.0,0.4,29.29,South,180,0.0,0.0,31,0.00,,---,0.00,VWS V13.01,2013-01-19 01:24:00,
2013-01-18 20:29:00,27.5,0.8,29.29,South,180,0.0,0.0,31,0.00,,---,0.00,VWS V13.01,2013-01-19 01:29:00,
2013-01-18 20:34:00,27.9,-1.0,29.29,South,180,2.7,2.7,28,0.00,,---,0.00,VWS V13.01,2013-01-19 01:34:00,
2013-01-18 20:39:00,28.6,-0.4,29.29,South,180,0.0,2.7,28,0.00,,---,0.00,VWS V13.01,2013-01-19 01:39:00,
2013-01-18 20:44:00,28.2,1.5,29.29,South,180,0.0,0.0,31,0.00,,---,0.00,VWS V13.01,2013-01-19 01:44:00,
2013-01-18 20:49:00,27.9,1.8,29.29,South,180,0.0,0.0,32,0.00,,---,0.00,VWS V13.01,2013-01-19 01:49:00,
2013-01-18 20:54:00,27.7,1.7,29.29,South,180,0.0,0.0,32,0.00,,---,0.00,VWS V13.01,2013-01-19 01:54:00,
2013-01-18 20:59:00,27.1,1.2,29.29,South,180,0.0,0.0,32,0.00,,---,0.00,VWS V13.01,2013-01-19 01:59:00,
2013-01-18 21:04:00,27.0,0.4,29.29,South,180,0.0,2.2,31,0.00,,---,0.00,VWS V13.01,2013-01-19 02:04:00,
2013-01-18 21:10:00,27.0,0.4,29.29,South,180,0.0,2.2,31,0.00,,---,0.00,VWS V13.01,2013-01-19 02:10:00,
2013-01-18 21:15:00,27.0,0.4,29.29,South,180,0.0,2.2,31,0.00,,---,0.00,VWS V13.01,2013-01-19 02:15:00,
2013-01-18 21:20:00,27.1,0.5,29.29,WSW,248,0.0,3.6,31,0.00,,---,0.00,VWS V13.01,2013-01-19 02:20:00,
2013-01-18 21:25:00,27.3,0.7,29.29,WSW,248,0.0,0.0,31,0.00,,---,0.00,VWS V13.01,2013-01-19 02:25:00,
2013-01-18 21:30:00,28.6,-0.4,29.29,WSW,248,0.0,0.0,28,0.00,,---,0.00,VWS V13.01,2013-01-19 02:30:00,
2013-01-18 21:36:00,28.6,-0.4,29.29,WSW,248,0.0,3.6,28,0.00,,---,0.00,VWS V13.01,2013-01-19 02:36:00,
2013-01-18 21:41:00,28.9,-0.1,29.29,WSW,248,0.0,3.6,28,0.00,,---,0.00,VWS V13.01,2013-01-19 02:41:00,
2013-01-18 21:46:00,28.6,1.1,29.29,WSW,248,0.0,0.0,30,0.00,,---,0.00,VWS V13.01,2013-01-19 02:46:00,
2013-01-18 21:51:00,28.6,1.8,29.29,SW,225,2.7,2.7,31,0.00,,---,0.00,VWS V13.01,2013-01-19 02:51:00,
2013-01-18 21:57:00,28.0,2.0,29.29,SW,225,0.0,2.7,32,0.00,,---,0.00,VWS V13.01,2013-01-19 02:57:00,
2013-01-18 22:02:00,28.0,1.3,29.26,SW,225,0.0,2.7,31,0.00,,---,0.00,VWS V13.01,2013-01-19 03:02:00,
2013-01-18 22:07:00,28.4,1.6,29.26,SW,225,0.0,0.0,31,0.00,,---,0.00,VWS V13.01,2013-01-19 03:07:00,
2013-01-18 22:12:00,27.7,2.3,29.26,SW,225,0.0,0.0,33,0.00,,---,0.00,VWS V13.01,2013-01-19 03:12:00,
2013-01-18 22:17:00,27.1,2.5,29.26,SW,225,0.0,0.0,34,0.00,,---,0.00,VWS V13.01,2013-01-19 03:17:00,
2013-01-18 22:22:00,26.8,1.5,29.26,SW,225,0.0,0.0,33,0.00,,---,0.00,VWS V13.01,2013-01-19 03:22:00,
2013-01-18 22:27:00,26.4,1.2,29.26,SW,225,0.0,0.0,33,0.00,,---,0.00,VWS V13.01,2013-01-19 03:27:00,
2013-01-18 22:32:00,26.6,1.4,29.26,SW,225,0.0,0.0,33,0.00,,---,0.00,VWS V13.01,2013-01-19 03:32:00,
2013-01-18 22:38:00,26.6,1.4,29.26,SW,225,0.0,0.0,33,0.00,,---,0.00,VWS V13.01,2013-01-19 03:38:00,
2013-01-18 22:43:00,27.0,1.0,29.26,SW,225,0.0,0.0,32,0.00,,---,0.00,VWS V13.01,2013-01-19 03:43:00,
2013-01-18 22:48:00,27.1,1.2,29.26,SW,225,0.0,0.0,32,0.00,,---,0.00,VWS V13.01,2013-01-19 03:48:00,
2013-01-18 22:53:00,26.8,2.2,29.26,SW,225,0.0,0.0,34,0.00,,---,0.00,VWS V13.01,2013-01-19 03:53:00,
2013-01-18 22:58:00,26.8,2.2,29.26,SW,225,0.0,0.0,34,0.00,,---,0.00,VWS V13.01,2013-01-19 03:58:00,
2013-01-18 23:04:00,25.9,1.4,29.26,SW,225,0.0,0.0,34,0.00,,---,0.00,VWS V13.01,2013-01-19 04:04:00,
2013-01-18 23:09:00,25.3,0.3,29.23,SW,225,0.0,0.0,33,0.00,,---,0.00,VWS V13.01,2013-01-19 04:09:00,
2013-01-18 23:14:00,25.0,-0.1,29.23,SW,225,0.0,0.0,33,0.00,,---,0.00,VWS V13.01,2013-01-19 04:14:00,
2013-01-18 23:19:00,25.0,-0.7,29.23,SW,225,0.0,0.0,32,0.00,,---,0.00,VWS V13.01,2013-01-19 04:19:00,
2013-01-18 23:24:00,25.0,-0.7,29.23,SW,225,0.0,0.0,32,0.00,,---,0.00,VWS V13.01,2013-01-19 04:24:00,
2013-01-18 23:29:00,25.0,-0.7,29.23,SW,225,0.0,0.0,32,0.00,,---,0.00,VWS V13.01,2013-01-19 04:29:00,
2013-01-18 23:34:00,24.4,-0.5,29.23,SW,225,0.0,0.0,33,0.00,,---,0.00,VWS V13.01,2013-01-19 04:34:00,
2013-01-18 23:40:00,24.4,-0.5,29.23,SW,225,0.0,0.0,33,0.00,,---,0.00,VWS V13.01,2013-01-19 04:40:00,
2013-01-18 23:45:00,24.4,-0.5,29.23,SW,225,0.0,0.0,33,0.00,,---,0.00,VWS V13.01,2013-01-19 04:45:00,
2013-01-18 23:50:00,24.4,-0.5,29.23,SW,225,0.0,0.0,33,0.00,,---,0.00,VWS V13.01,2013-01-19 04:50:00,
2013-01-18 23:55:00,24.3,-0.1,29.23,SW,225,0.0,0.0,34,0.00,,---,0.00,VWS V13.01,2013-01-19 04:55:00,